Time,TemperatureF,DewpointF,PressureIn,WindDirection,WindDirectionDegrees,WindSpeedMPH,WindSpeedGustMPH,Humidity,HourlyPrecipIn,Conditions,Clouds,dailyrainin,SoftwareType,DateUTC
2013-04-02 00:00:00,35.0,22.5,29.96,NNW,342,0.0,0.0,60,0.00,CLR,,0.00,WeatherDisplay:10.37,2013-04-02 08:00:00,
2013-04-02 00:05:00,34.4,22.3,29.96,NNW,342,0.0,0.0,61,0.00,CLR,,0.00,WeatherDisplay:10.37,2013-04-02 08:05:00,
2013-04-02 00:10:00,34.2,22.1,29.96,NNW,342,0.0,0.0,61,0.00,CLR,,0.00,WeatherDisplay:10.37,2013-04-02 08:10:00,
2013-04-02 00:15:00,34.1,22.4,29.96,NNW,342,0.0,0.0,62,0.00,CLR,,0.00,WeatherDisplay:10.37,2013-04-02 08:15:00,
2013-04-02 00:20:00,33.6,22.3,29.96,NNW,342,0.0,0.0,63,0.00,CLR,,0.00,WeatherDisplay:10.37,2013-04-02 08:20:00,
2013-04-02 00:25:00,33.3,22.4,29.96,NNW,341,0.0,0.0,64,0.00,CLR,,0.00,WeatherDisplay:10.37,2013-04-02 08:25:00,
2013-04-02 00:30:00,33.1,22.6,29.96,NNW,342,0.0,0.0,65,0.00,CLR,,0.00,WeatherDisplay:10.37,2013-04-02 08:30:00,
2013-04-02 00:35:00,33.1,22.2,29.97,NNW,341,0.0,0.0,64,0.00,CLR,,0.00,WeatherDisplay:10.37,2013-04-02 08:35:00,
2013-04-02 00:40:00,33.0,22.1,29.97,NNW,342,0.0,0.0,64,0.00,CLR,,0.00,WeatherDisplay:10.37,2013-04-02 08:40:00,
2013-04-02 00:45:00,32.9,22.4,29.97,NNW,341,0.0,0.0,65,0.00,CLR,,0.00,WeatherDisplay:10.37,2013-04-02 08:45:00,
2013-04-02 00:50:00,32.9,22.4,29.97,NNW,341,0.0,0.0,65,0.00,CLR,,0.00,WeatherDisplay:10.37,2013-04-02 08:50:00,
2013-04-02 00:55:00,32.8,22.3,29.97,NNW,341,0.0,0.0,65,0.00,CLR,,0.00,WeatherDisplay:10.37,2013-04-02 08:55:00,
2013-04-02 01:00:00,32.7,22.2,29.97,NNW,342,0.0,0.0,65,0.00,CLR,,0.00,WeatherDisplay:10.37,2013-04-02 09:00:00,
2013-04-02 01:05:00,32.6,22.1,29.97,NNW,342,0.0,0.0,65,0.00,CLR,,0.00,WeatherDisplay:10.37,2013-04-02 09:05:00,
2013-04-02 01:10:00,32.6,22.1,29.98,NNW,341,0.0,0.0,65,0.00,CLR,,0.00,WeatherDisplay:10.37,2013-04-02 09:10:00,
2013-04-02 01:15:00,32.7,21.9,29.98,NNW,342,0.0,0.0,64,0.00,CLR,,0.00,WeatherDisplay:10.37,2013-04-02 09:15:00,
2013-04-02 01:20:00,32.6,21.8,29.98,NNW,341,0.0,0.0,64,0.00,CLR,,0.00,WeatherDisplay:10.37,2013-04-02 09:20:00,
2013-04-02 01:25:00,32.5,22.0,29.98,NNW,341,0.0,0.0,65,0.00,CLR,,0.00,WeatherDisplay:10.37,2013-04-02 09:25:00,
2013-04-02 01:30:00,32.3,22.2,29.98,NNW,341,0.0,0.0,66,0.00,CLR,,0.00,WeatherDisplay:10.37,2013-04-02 09:30:00,
2013-04-02 01:35:00,32.3,22.2,29.98,NNW,342,0.0,0.0,66,0.00,CLR,,0.00,WeatherDisplay:10.37,2013-04-02 09:35:00,
2013-04-02 01:40:00,32.3,22.2,29.98,NNW,342,0.0,0.0,66,0.00,CLR,,0.00,WeatherDisplay:10.37,2013-04-02 09:40:00,
2013-04-02 01:45:00,32.3,22.2,29.98,NNW,342,0.0,0.0,66,0.00,CLR,,0.00,WeatherDisplay:10.37,2013-04-02 09:45:00,
2013-04-02 01:50:00,32.2,22.5,29.99,NNW,342,0.0,0.0,67,0.00,CLR,,0.00,WeatherDisplay:10.37,2013-04-02 09:50:00,
2013-04-02 01:55:00,32.0,22.3,29.99,NNW,341,0.0,0.0,67,0.00,CLR,,0.00,WeatherDisplay:10.37,2013-04-02 09:55:00,
2013-04-02 02:00:00,31.7,22.0,29.99,NNW,341,0.0,0.0,67,0.00,CLR,,0.00,WeatherDisplay:10.37,2013-04-02 10:00:00,
2013-04-02 02:05:00,31.6,21.9,29.99,NNW,342,0.0,0.0,67,0.00,CLR,,0.00,WeatherDisplay:10.37,2013-04-02 10:05:00,
2013-04-02 02:10:00,31.5,22.1,29.99,NNW,342,0.0,0.0,68,0.00,CLR,,0.00,WeatherDisplay:10.37,2013-04-02 10:10:00,
2013-04-02 02:15:00,31.4,22.1,29.99,NNW,342,0.0,0.0,68,0.00,CLR,,0.00,WeatherDisplay:10.37,2013-04-02 10:15:00,
2013-04-02 02:20:00,31.2,21.9,29.99,NNW,342,0.0,0.0,68,0.00,CLR,,0.00,WeatherDisplay:10.37,2013-04-02 10:20:00,
2013-04-02 02:25:00,31.0,22.0,30.00,NNW,341,0.0,0.0,69,0.00,CLR,,0.00,WeatherDisplay:10.37,2013-04-02 10:25:00,
2013-04-02 02:30:00,30.8,21.8,30.00,NNW,342,0.0,0.0,69,0.00,CLR,,0.00,WeatherDisplay:10.37,2013-04-02 10:30:00,
2013-04-02 02:35:00,30.7,22.1,30.00,NNW,341,0.0,0.0,70,0.00,CLR,,0.00,WeatherDisplay:10.37,2013-04-02 10:35:00,
2013-04-02 02:40:00,30.6,22.0,30.00,NNW,341,0.0,0.0,70,0.00,CLR,,0.00,WeatherDisplay:10.37,2013-04-02 10:40:00,
2013-04-02 02:45:00,30.5,21.9,30.00,NNW,342,0.0,0.0,70,0.00,CLR,,0.00,WeatherDisplay:10.37,2013-04-02 10:45:00,
2013-04-02 02:50:00,30.4,21.8,30.00,NNW,342,0.0,0.0,70,0.00,CLR,,0.00,WeatherDisplay:10.37,2013-04-02 10:50:00,
2013-04-02 02:55:00,30.3,22.0,30.00,NNW,342,0.0,0.0,71,0.00,CLR,,0.00,WeatherDisplay:10.37,2013-04-02 10:55:00,
2013-04-02 03:00:00,30.1,21.8,30.00,NNW,341,0.0,0.0,71,0.00,CLR,,0.00,WeatherDisplay:10.37,2013-04-02 11:00:00,
2013-04-02 03:05:00,30.2,21.9,30.00,NNW,342,0.0,0.0,71,0.00,CLR,,0.00,WeatherDisplay:10.37,2013-04-02 11:05:00,
2013-04-02 03:10:00,30.2,21.9,30.00,NNW,342,0.0,0.0,71,0.00,CLR,,0.00,WeatherDisplay:10.37,2013-04-02 11:10:00,
2013-04-02 03:15:00,30.2,21.9,30.00,NNW,342,0.0,0.0,71,0.00,CLR,,0.00,WeatherDisplay:10.37,2013-04-02 11:15:00,
2013-04-02 03:20:00,30.1,21.8,30.00,NNW,341,0.0,0.0,71,0.00,CLR,,0.00,WeatherDisplay:10.37,2013-04-02 11:20:00,
2013-04-02 03:25:00,30.0,21.7,30.00,NNW,342,0.0,0.0,71,0.00,CLR,,0.00,WeatherDisplay:10.37,2013-04-02 11:25:00,
2013-04-02 03:30:00,29.9,21.6,30.00,NNW,342,0.0,0.0,71,0.00,CLR,,0.00,WeatherDisplay:10.37,2013-04-02 11:30:00,
2013-04-02 03:35:00,29.8,21.5,30.00,NNW,341,0.0,0.0,71,0.00,CLR,,0.00,WeatherDisplay:10.37,2013-04-02 11:35:00,
2013-04-02 03:40:00,29.8,21.2,30.00,NNW,342,0.0,0.0,70,0.00,CLR,,0.00,WeatherDisplay:10.37,2013-04-02 11:40:00,
2013-04-02 03:45:00,29.9,21.6,30.01,NNW,342,0.0,0.0,71,0.00,CLR,,0.00,WeatherDisplay:10.37,2013-04-02 11:45:00,
2013-04-02 03:50:00,29.7,21.4,30.01,NNW,342,0.0,0.0,71,0.00,CLR,,0.00,WeatherDisplay:10.37,2013-04-02 11:50:00,
2013-04-02 03:55:00,29.6,21.7,30.01,NNW,342,0.0,0.0,72,0.00,CLR,,0.00,WeatherDisplay:10.37,2013-04-02 11:55:00,
2013-04-02 04:00:00,29.6,21.7,30.01,NNW,341,0.0,0.0,72,0.00,CLR,,0.00,WeatherDisplay:10.37,2013-04-02 12:00:00,
2013-04-02 04:05:00,29.6,22.0,30.01,NNW,343,0.0,0.0,73,0.00,CLR,,0.00,WeatherDisplay:10.37,2013-04-02 12:05:00,
2013-04-02 04:10:00,29.8,21.5,30.01,NNW,343,0.0,0.0,71,0.00,CLR,,0.00,WeatherDisplay:10.37,2013-04-02 12:10:00,
2013-04-02 04:15:00,29.9,22.0,30.01,NNW,343,0.0,0.0,72,0.00,CLR,,0.00,WeatherDisplay:10.37,2013-04-02 12:15:00,
2013-04-02 04:20:00,29.7,21.8,30.01,NNW,343,0.0,0.0,72,0.00,CLR,,0.00,WeatherDisplay:10.37,2013-04-02 12:20:00,
2013-04-02 04:25:00,29.7,21.8,30.01,NNW,343,0.0,0.0,72,0.00,CLR,,0.00,WeatherDisplay:10.37,2013-04-02 12:25:00,
2013-04-02 04:30:00,29.7,21.8,30.01,NNW,343,0.0,0.0,72,0.00,CLR,,0.00,WeatherDisplay:10.37,2013-04-02 12:30:00,
2013-04-02 04:35:00,29.6,21.7,30.01,NNW,343,0.0,0.0,72,0.00,CLR,,0.00,WeatherDisplay:10.37,2013-04-02 12:35:00,
2013-04-02 04:40:00,29.5,21.3,30.02,NNW,343,0.0,0.0,71,0.00,CLR,,0.00,WeatherDisplay:10.37,2013-04-02 12:40:00,
2013-04-02 04:45:00,29.6,21.3,30.02,NNW,343,0.0,0.0,71,0.00,CLR,,0.00,WeatherDisplay:10.37,2013-04-02 12:45:00,
2013-04-02 04:50:00,29.6,21.0,30.02,NNW,343,0.0,0.0,70,0.00,CLR,,0.00,WeatherDisplay:10.37,2013-04-02 12:50:00,
2013-04-02 04:55:00,29.4,21.2,30.02,NNW,343,0.0,0.0,71,0.00,CLR,,0.00,WeatherDisplay:10.37,2013-04-02 12:55:00,
2013-04-02 05:00:00,29.2,21.0,30.02,NNW,343,0.0,0.0,71,0.00,CLR,,0.00,WeatherDisplay:10.37,2013-04-02 13:00:00,
2013-04-02 05:05:00,29.0,21.1,30.02,NNW,343,0.0,0.0,72,0.00,CLR,,0.00,WeatherDisplay:10.37,2013-04-02 13:05:00,
2013-04-02 05:10:00,28.7,21.1,30.02,NNW,343,0.0,0.0,73,0.00,CLR,,0.00,WeatherDisplay:10.37,2013-04-02 13:10:00,
2013-04-02 05:15:00,28.4,21.2,30.02,NNW,343,0.0,0.0,74,0.00,CLR,,0.00,WeatherDisplay:10.37,2013-04-02 13:15:00,
2013-04-02 05:20:00,28.1,20.9,30.03,NNW,343,0.0,0.0,74,0.00,CLR,,0.00,WeatherDisplay:10.37,2013-04-02 13:20:00,
2013-04-02 05:25:00,27.9,21.0,30.03,NNW,343,0.0,0.0,75,0.00,CLR,,0.00,WeatherDisplay:10.37,2013-04-02 13:25:00,
2013-04-02 05:30:00,27.6,21.0,30.03,NNW,343,0.0,0.0,76,0.00,CLR,,0.00,WeatherDisplay:10.37,2013-04-02 13:30:00,
2013-04-02 05:35:00,27.5,20.9,30.03,NNW,343,0.0,0.0,76,0.00,CLR,,0.00,WeatherDisplay:10.37,2013-04-02 13:35:00,
2013-04-02 05:40:00,27.5,20.9,30.03,NNW,343,0.0,0.0,76,0.00,CLR,,0.00,WeatherDisplay:10.37,2013-04-02 13:40:00,
2013-04-02 05:45:00,27.7,21.1,30.03,NNW,343,0.0,0.0,76,0.00,CLR,,0.00,WeatherDisplay:10.37,2013-04-02 13:45:00,
2013-04-02 05:50:00,27.8,21.2,30.03,NNW,343,0.0,0.0,76,0.00,CLR,,0.00,WeatherDisplay:10.37,2013-04-02 13:50:00,
2013-04-02 05:55:00,27.8,20.9,30.03,NNW,343,0.0,0.0,75,0.00,CLR,,0.00,WeatherDisplay:10.37,2013-04-02 13:55:00,
2013-04-02 06:00:00,27.6,21.0,30.03,NNW,343,0.0,0.0,76,0.00,CLR,,0.00,WeatherDisplay:10.37,2013-04-02 14:00:00,
2013-04-02 06:05:00,27.5,20.6,30.03,NNW,343,0.0,0.0,75,0.00,CLR,,0.00,WeatherDisplay:10.37,2013-04-02 14:05:00,
2013-04-02 06:10:00,27.5,20.9,30.04,NNW,343,0.0,0.0,76,0.00,CLR,,0.00,WeatherDisplay:10.37,2013-04-02 14:10:00,
2013-04-02 06:15:00,27.5,20.9,30.04,NNW,343,0.0,0.0,76,0.00,CLR,,0.00,WeatherDisplay:10.37,2013-04-02 14:15:00,
2013-04-02 06:20:00,27.3,20.7,30.04,NNW,343,0.0,0.0,76,0.00,CLR,,0.00,WeatherDisplay:10.37,2013-04-02 14:20:00,
2013-04-02 06:25:00,27.1,20.8,30.04,NNW,343,0.0,0.0,77,0.00,CLR,,0.00,WeatherDisplay:10.37,2013-04-02 14:25:00,
2013-04-02 06:30:00,26.9,20.7,30.04,NNW,343,0.0,0.0,77,0.00,CLR,,0.00,WeatherDisplay:10.37,2013-04-02 14:30:00,
2013-04-02 06:35:00,27.0,20.7,30.04,NNW,343,0.0,0.0,77,0.00,CLR,,0.00,WeatherDisplay:10.37,2013-04-02 14:35:00,
2013-04-02 06:40:00,27.1,20.8,30.04,NNW,343,0.0,0.0,77,0.00,CLR,,0.00,WeatherDisplay:10.37,2013-04-02 14:40:00,
2013-04-02 06:45:00,27.1,20.8,30.04,NNW,343,0.0,0.0,77,0.00,CLR,,0.00,WeatherDisplay:10.37,2013-04-02 14:45:00,
2013-04-02 06:50:00,27.1,20.8,30.04,NNW,343,0.0,0.0,77,0.00,CLR,,0.00,WeatherDisplay:10.37,2013-04-02 14:50:00,
2013-04-02 06:55:00,27.3,21.0,30.04,NNW,343,0.0,0.0,77,0.00,CLR,,0.00,WeatherDisplay:10.37,2013-04-02 14:55:00,
2013-04-02 07:00:00,27.5,20.9,30.04,NNW,343,0.0,0.0,76,0.00,CLR,,0.00,WeatherDisplay:10.37,2013-04-02 15:00:00,
2013-04-02 07:05:00,27.7,20.8,30.04,NNW,343,0.0,0.0,75,0.00,CLR,,0.00,WeatherDisplay:10.37,2013-04-02 15:05:00,
2013-04-02 07:10:00,27.9,21.0,30.04,NNW,343,0.0,0.0,75,0.00,CLR,,0.00,WeatherDisplay:10.37,2013-04-02 15:10:00,
2013-04-02 07:15:00,27.8,20.9,30.04,NNW,343,0.0,0.0,75,0.00,CLR,,0.00,WeatherDisplay:10.37,2013-04-02 15:15:00,
2013-04-02 07:20:00,27.9,21.0,30.05,NNW,343,0.0,0.0,75,0.00,CLR,,0.00,WeatherDisplay:10.37,2013-04-02 15:20:00,
2013-04-02 07:25:00,27.9,20.7,30.05,NNW,343,0.0,0.0,74,0.00,CLR,,0.00,WeatherDisplay:10.37,2013-04-02 15:25:00,
2013-04-02 07:30:00,27.9,20.7,30.05,NNW,343,0.0,0.0,74,0.00,CLR,,0.00,WeatherDisplay:10.37,2013-04-02 15:30:00,
2013-04-02 07:35:00,27.9,20.7,30.05,NNW,343,0.0,0.0,74,0.00,CLR,,0.00,WeatherDisplay:10.37,2013-04-02 15:35:00,
2013-04-02 07:40:00,27.9,20.7,30.05,NNW,343,0.0,0.0,74,0.00,CLR,,0.00,WeatherDisplay:10.37,2013-04-02 15:40:00,
2013-04-02 07:45:00,27.9,20.4,30.05,NNW,343,0.0,0.0,73,0.00,CLR,,0.00,WeatherDisplay:10.37,2013-04-02 15:45:00,
2013-04-02 07:50:00,27.9,20.4,30.05,NNW,343,0.0,0.0,73,0.00,CLR,,0.00,WeatherDisplay:10.37,2013-04-02 15:50:00,
2013-04-02 07:55:00,27.9,20.4,30.05,NNW,343,0.0,0.0,73,0.00,CLR,,0.00,WeatherDisplay:10.37,2013-04-02 15:55:00,
2013-04-02 08:00:00,27.7,20.2,30.05,NNW,343,0.0,0.0,73,0.00,CLR,,0.00,WeatherDisplay:10.37,2013-04-02 16:00:00,
2013-04-02 08:05:00,27.4,20.2,30.05,NNW,343,0.0,0.0,74,0.00,CLR,,0.00,WeatherDisplay:10.37,2013-04-02 16:05:00,
2013-04-02 08:10:00,27.2,20.3,30.06,NNW,343,0.0,0.0,75,0.00,CLR,,0.00,WeatherDisplay:10.37,2013-04-02 16:10:00,
2013-04-02 08:15:00,27.3,20.4,30.06,NNW,343,0.0,0.0,75,0.00,CLR,,0.00,WeatherDisplay:10.37,2013-04-02 16:15:00,
2013-04-02 08:20:00,27.4,20.5,30.06,NNW,343,0.0,0.0,75,0.00,CLR,,0.00,WeatherDisplay:10.37,2013-04-02 16:20:00,
2013-04-02 08:25:00,27.5,20.6,30.06,NNW,343,0.0,0.0,75,0.00,CLR,,0.00,WeatherDisplay:10.37,2013-04-02 16:25:00,
2013-04-02 08:30:00,27.3,20.4,30.06,NNW,343,0.0,0.0,75,0.00,CLR,,0.00,WeatherDisplay:10.37,2013-04-02 16:30:00,
2013-04-02 08:35:00,27.3,20.7,30.06,NNW,343,0.0,0.0,76,0.00,CLR,,0.00,WeatherDisplay:10.37,2013-04-02 16:35:00,
2013-04-02 08:40:00,27.7,20.8,30.06,NNW,343,0.0,0.0,75,0.00,CLR,,0.00,WeatherDisplay:10.37,2013-04-02 16:40:00,
2013-04-02 08:45:00,28.2,21.0,30.06,NNW,343,0.0,0.0,74,0.00,CLR,,0.00,WeatherDisplay:10.37,2013-04-02 16:45:00,
2013-04-02 08:50:00,28.7,21.1,30.06,NNW,343,0.0,0.0,73,0.00,CLR,,0.00,WeatherDisplay:10.37,2013-04-02 16:50:00,
2013-04-02 08:55:00,29.0,21.1,30.06,NNW,343,0.0,0.0,72,0.00,CLR,,0.00,WeatherDisplay:10.37,2013-04-02 16:55:00,
2013-04-02 09:00:00,29.3,22.7,30.06,NNW,343,0.0,0.0,76,0.00,CLR,,0.00,WeatherDisplay:10.37,2013-04-02 17:00:00,
2013-04-02 09:05:00,29.7,21.4,30.07,NNW,343,0.0,0.0,71,0.00,CLR,,0.00,WeatherDisplay:10.37,2013-04-02 17:05:00,
2013-04-02 09:10:00,30.0,21.4,30.07,NNW,343,0.0,0.0,70,0.00,CLR,,0.00,WeatherDisplay:10.37,2013-04-02 17:10:00,
2013-04-02 09:15:00,30.4,21.4,30.07,NNW,343,0.0,0.0,69,0.00,CLR,,0.00,WeatherDisplay:10.37,2013-04-02 17:15:00,
2013-04-02 09:20:00,30.7,21.4,30.07,NNW,344,0.0,0.0,68,0.00,CLR,,0.00,WeatherDisplay:10.37,2013-04-02 17:20:00,
2013-04-02 09:25:00,31.0,23.0,30.07,NNW,344,0.0,0.0,72,0.00,CLR,,0.00,WeatherDisplay:10.37,2013-04-02 17:25:00,
2013-04-02 09:30:00,31.2,21.5,30.07,NNW,344,0.0,0.0,67,0.00,CLR,,0.00,WeatherDisplay:10.37,2013-04-02 17:30:00,
2013-04-02 09:35:00,31.5,21.8,30.07,NNW,344,0.0,0.0,67,0.00,CLR,,0.00,WeatherDisplay:10.37,2013-04-02 17:35:00,
2013-04-02 09:40:00,31.7,22.0,30.07,NNW,344,0.0,0.0,67,0.00,CLR,,0.00,WeatherDisplay:10.37,2013-04-02 17:40:00,
2013-04-02 09:45:00,32.0,21.9,30.07,NNW,344,0.0,0.0,66,0.00,CLR,,0.00,WeatherDisplay:10.37,2013-04-02 17:45:00,
2013-04-02 09:50:00,32.3,21.8,30.07,NNW,344,0.0,0.0,65,0.00,CLR,,0.00,WeatherDisplay:10.37,2013-04-02 17:50:00,
2013-04-02 09:55:00,32.4,22.3,30.07,NNW,344,0.0,0.0,66,0.00,CLR,,0.00,WeatherDisplay:10.37,2013-04-02 17:55:00,
2013-04-02 10:00:00,32.6,21.8,30.08,NNW,344,0.0,0.0,64,0.00,CLR,,0.00,WeatherDisplay:10.37,2013-04-02 18:00:00,
2013-04-02 10:05:00,32.8,22.0,30.08,NNW,344,0.0,0.0,64,0.00,CLR,,0.00,WeatherDisplay:10.37,2013-04-02 18:05:00,
2013-04-02 10:10:00,33.2,22.3,30.08,NNW,344,0.0,0.0,64,0.00,CLR,,0.00,WeatherDisplay:10.37,2013-04-02 18:10:00,
2013-04-02 10:15:00,33.5,22.2,30.08,NNW,344,0.0,0.0,63,0.00,CLR,,0.00,WeatherDisplay:10.37,2013-04-02 18:15:00,
2013-04-02 10:20:00,33.9,22.6,30.07,NNW,344,0.0,0.0,63,0.00,CLR,,0.00,WeatherDisplay:10.37,2013-04-02 18:20:00,
2013-04-02 10:25:00,34.3,22.6,30.08,NNW,344,0.0,0.0,62,0.00,CLR,,0.00,WeatherDisplay:10.37,2013-04-02 18:25:00,
2013-04-02 10:30:00,34.5,23.2,30.08,NNW,344,0.0,0.0,63,0.00,CLR,,0.00,WeatherDisplay:10.37,2013-04-02 18:30:00,
2013-04-02 10:35:00,35.0,22.9,30.08,NNW,344,0.0,0.0,61,0.00,CLR,,0.00,WeatherDisplay:10.37,2013-04-02 18:35:00,
2013-04-02 10:40:00,35.3,22.8,30.08,NNW,344,0.0,0.0,60,0.00,CLR,,0.00,WeatherDisplay:10.37,2013-04-02 18:40:00,
2013-04-02 10:45:00,35.5,22.6,30.08,NNW,344,0.0,0.0,59,0.00,CLR,,0.00,WeatherDisplay:10.37,2013-04-02 18:45:00,
2013-04-02 10:50:00,35.8,22.9,30.08,NNW,344,0.0,0.0,59,0.00,CLR,,0.00,WeatherDisplay:10.37,2013-04-02 18:50:00,
2013-04-02 10:55:00,36.2,22.8,30.08,NNW,344,0.0,0.0,58,0.00,CLR,,0.00,WeatherDisplay:10.37,2013-04-02 18:55:00,
2013-04-02 11:00:00,36.4,22.6,30.08,NNW,344,0.0,0.0,57,0.00,CLR,,0.00,WeatherDisplay:10.37,2013-04-02 19:00:00,
2013-04-02 11:05:00,36.7,23.3,30.08,NNW,344,0.0,0.0,58,0.00,CLR,,0.00,WeatherDisplay:10.37,2013-04-02 19:05:00,
2013-04-02 11:10:00,37.1,22.8,30.08,NNW,344,0.0,0.0,56,0.00,CLR,,0.00,WeatherDisplay:10.37,2013-04-02 19:10:00,
2013-04-02 11:16:00,37.5,23.2,30.08,NNW,344,0.0,0.0,56,0.00,CLR,,0.00,WeatherDisplay:10.37,2013-04-02 19:16:00,
2013-04-02 11:21:00,37.8,23.5,30.08,NNW,344,0.0,0.0,56,0.00,CLR,,0.00,WeatherDisplay:10.37,2013-04-02 19:21:00,
2013-04-02 11:26:00,38.0,22.8,30.08,NNW,344,0.0,0.0,54,0.00,CLR,,0.00,WeatherDisplay:10.37,2013-04-02 19:26:00,
2013-04-02 11:31:00,38.1,23.3,30.08,NNW,344,0.0,0.0,55,0.00,CLR,,0.00,WeatherDisplay:10.37,2013-04-02 19:31:00,
2013-04-02 11:35:00,38.3,23.1,30.08,NNW,344,0.0,0.0,54,0.00,CLR,,0.00,WeatherDisplay:10.37,2013-04-02 19:35:00,
2013-04-02 11:40:00,38.4,22.3,30.08,NNW,344,0.0,0.0,52,0.00,CLR,,0.00,WeatherDisplay:10.37,2013-04-02 19:40:00,
2013-04-02 11:45:00,38.6,22.5,30.08,NNW,344,0.0,0.0,52,0.00,CLR,,0.00,WeatherDisplay:10.37,2013-04-02 19:45:00,
2013-04-02 11:50:00,38.9,23.2,30.09,NNW,344,0.0,0.0,53,0.00,CLR,,0.00,WeatherDisplay:10.37,2013-04-02 19:50:00,
2013-04-02 11:55:00,39.2,22.6,30.09,NNW,344,0.0,0.0,51,0.00,CLR,,0.00,WeatherDisplay:10.37,2013-04-02 19:55:00,
2013-04-02 12:00:00,39.4,22.8,30.09,NNW,344,0.0,0.0,51,0.00,CLR,,0.00,WeatherDisplay:10.37,2013-04-02 20:00:00,
2013-04-02 12:05:00,39.4,22.8,30.09,NNW,344,0.0,0.0,51,0.00,CLR,,0.00,WeatherDisplay:10.37,2013-04-02 20:05:00,
2013-04-02 12:11:00,39.5,22.4,30.09,NNW,344,0.0,0.0,50,0.00,CLR,,0.00,WeatherDisplay:10.37,2013-04-02 20:11:00,
2013-04-02 12:16:00,39.6,22.5,30.09,NNW,344,0.0,0.0,50,0.00,CLR,,0.00,WeatherDisplay:10.37,2013-04-02 20:16:00,
2013-04-02 12:21:00,39.7,22.1,30.09,NNW,344,0.0,0.0,49,0.00,CLR,,0.00,WeatherDisplay:10.37,2013-04-02 20:21:00,
2013-04-02 12:26:00,39.8,22.2,30.09,NNW,344,0.0,0.0,49,0.00,CLR,,0.00,WeatherDisplay:10.37,2013-04-02 20:26:00,
2013-04-02 12:31:00,39.9,22.3,30.09,NNW,344,0.0,0.0,49,0.00,CLR,,0.00,WeatherDisplay:10.37,2013-04-02 20:31:00,
2013-04-02 12:36:00,40.1,22.4,30.09,NNW,344,0.0,0.0,49,0.00,CLR,,0.00,WeatherDisplay:10.37,2013-04-02 20:36:00,
2013-04-02 12:41:00,40.3,22.1,30.09,NNW,344,0.0,0.0,48,0.00,CLR,,0.00,WeatherDisplay:10.37,2013-04-02 20:41:00,
2013-04-02 12:46:00,40.4,23.2,30.09,NNW,344,0.0,0.0,50,0.00,CLR,,0.00,WeatherDisplay:10.37,2013-04-02 20:46:00,
2013-04-02 12:51:00,40.6,22.9,30.09,NNW,344,0.0,0.0,49,0.00,CLR,,0.00,WeatherDisplay:10.37,2013-04-02 20:51:00,
2013-04-02 12:56:00,40.4,22.7,30.09,NNW,344,0.0,0.0,49,0.00,CLR,,0.00,WeatherDisplay:10.37,2013-04-02 20:56:00,
2013-04-02 13:01:00,40.3,22.1,30.09,NNW,344,0.0,0.0,48,0.00,CLR,,0.00,WeatherDisplay:10.37,2013-04-02 21:01:00,
2013-04-02 13:06:00,40.5,23.3,30.09,NNW,344,0.0,0.0,50,0.00,CLR,,0.00,WeatherDisplay:10.37,2013-04-02 21:06:00,
2013-04-02 13:11:00,41.0,22.8,30.09,NNW,344,0.0,0.0,48,0.00,CLR,,0.00,WeatherDisplay:10.37,2013-04-02 21:11:00,
2013-04-02 13:16:00,41.5,22.7,30.09,NNW,344,0.0,0.0,47,0.00,CLR,,0.00,WeatherDisplay:10.37,2013-04-02 21:16:00,
2013-04-02 13:21:00,41.8,23.0,30.09,NNW,344,0.0,0.0,47,0.00,CLR,,0.00,WeatherDisplay:10.37,2013-04-02 21:21:00,
2013-04-02 13:26:00,41.5,23.2,30.09,NNW,344,0.0,0.0,48,0.00,CLR,,0.00,WeatherDisplay:10.37,2013-04-02 21:26:00,
2013-04-02 13:31:00,41.8,24.0,30.09,NNW,344,0.0,0.0,49,0.00,CLR,,0.00,WeatherDisplay:10.37,2013-04-02 21:31:00,
2013-04-02 13:36:00,42.0,24.2,30.09,NNW,344,0.0,0.0,49,0.00,CLR,,0.00,WeatherDisplay:10.37,2013-04-02 21:36:00,
2013-04-02 13:41:00,42.2,23.9,30.10,NNW,344,0.0,0.0,48,0.00,CLR,,0.00,WeatherDisplay:10.37,2013-04-02 21:41:00,
2013-04-02 13:46:00,42.1,24.3,30.09,NNW,344,0.0,0.0,49,0.00,CLR,,0.00,WeatherDisplay:10.37,2013-04-02 21:46:00,
2013-04-02 13:51:00,42.0,24.7,30.09,NNW,344,0.0,0.0,50,0.00,CLR,,0.00,WeatherDisplay:10.37,2013-04-02 21:51:00,
2013-04-02 13:56:00,42.0,24.2,30.10,NNW,344,0.0,0.0,49,0.00,CLR,,0.00,WeatherDisplay:10.37,2013-04-02 21:56:00,
2013-04-02 14:01:00,41.8,24.5,30.10,NNW,344,0.0,0.0,50,0.00,CLR,,0.00,WeatherDisplay:10.37,2013-04-02 22:01:00,
2013-04-02 14:06:00,42.1,24.8,30.10,NNW,344,0.0,0.0,50,0.00,CLR,,0.00,WeatherDisplay:10.37,2013-04-02 22:06:00,
2013-04-02 14:11:00,42.4,25.5,30.10,NNW,344,0.0,0.0,51,0.00,CLR,,0.00,WeatherDisplay:10.37,2013-04-02 22:11:00,
2013-04-02 14:16:00,42.7,25.8,30.10,NNW,344,0.0,0.0,51,0.00,CLR,,0.00,WeatherDisplay:10.37,2013-04-02 22:16:00,
2013-04-02 14:21:00,42.9,26.0,30.10,NNW,344,0.0,0.0,51,0.00,CLR,,0.00,WeatherDisplay:10.37,2013-04-02 22:21:00,
2013-04-02 14:26:00,43.2,25.3,30.10,NNW,344,0.0,0.0,49,0.00,CLR,,0.00,WeatherDisplay:10.37,2013-04-02 22:26:00,
2013-04-02 14:31:00,43.0,25.1,30.10,NNW,344,0.0,0.0,49,0.00,CLR,,0.00,WeatherDisplay:10.37,2013-04-02 22:31:00,
2013-04-02 14:36:00,43.0,25.6,30.10,NNW,343,0.0,0.0,50,0.00,CLR,,0.00,WeatherDisplay:10.37,2013-04-02 22:36:00,
2013-04-02 14:41:00,43.2,25.3,30.10,NNW,343,0.0,0.0,49,0.00,CLR,,0.00,WeatherDisplay:10.37,2013-04-02 22:41:00,
2013-04-02 14:46:00,42.9,25.0,30.10,NNW,343,0.0,0.0,49,0.00,CLR,,0.00,WeatherDisplay:10.37,2013-04-02 22:46:00,
2013-04-02 14:51:00,43.2,26.3,30.10,NNW,343,0.0,0.0,51,0.00,CLR,,0.00,WeatherDisplay:10.37,2013-04-02 22:51:00,
2013-04-02 14:56:00,43.2,27.2,30.11,NNW,343,0.0,0.0,53,0.00,CLR,,0.00,WeatherDisplay:10.37,2013-04-02 22:56:00,
2013-04-02 15:01:00,43.1,28.5,30.11,NNW,343,0.0,0.0,56,0.00,CLR,,0.00,WeatherDisplay:10.37,2013-04-02 23:01:00,
2013-04-02 15:06:00,42.8,29.0,30.10,NNW,343,0.0,0.0,58,0.00,CLR,,0.00,WeatherDisplay:10.37,2013-04-02 23:06:00,
2013-04-02 15:11:00,42.6,29.3,30.10,NNW,343,0.0,0.0,59,0.00,CLR,,0.00,WeatherDisplay:10.37,2013-04-02 23:11:00,
2013-04-02 15:16:00,42.4,29.1,30.10,NNW,343,0.0,0.0,59,0.00,CLR,,0.00,WeatherDisplay:10.37,2013-04-02 23:16:00,
2013-04-02 15:21:00,42.4,28.7,30.11,NNW,343,0.0,0.0,58,0.00,CLR,,0.00,WeatherDisplay:10.37,2013-04-02 23:21:00,
2013-04-02 15:26:00,42.7,28.5,30.11,NNW,343,0.0,0.0,57,0.00,CLR,,0.00,WeatherDisplay:10.37,2013-04-02 23:26:00,
2013-04-02 15:31:00,42.9,28.3,30.11,NNW,343,0.0,0.0,56,0.00,CLR,,0.00,WeatherDisplay:10.37,2013-04-02 23:31:00,
2013-04-02 15:36:00,43.1,28.5,30.11,NNW,343,0.0,0.0,56,0.00,CLR,,0.00,WeatherDisplay:10.37,2013-04-02 23:36:00,
2013-04-02 15:41:00,43.1,28.5,30.11,NNW,343,0.0,0.0,56,0.00,CLR,,0.00,WeatherDisplay:10.37,2013-04-02 23:41:00,
2013-04-02 15:46:00,43.4,28.3,30.11,NNW,343,0.0,0.0,55,0.00,CLR,,0.00,WeatherDisplay:10.37,2013-04-02 23:46:00,
2013-04-02 15:51:00,43.2,27.7,30.11,NNW,343,0.0,0.0,54,0.00,CLR,,0.00,WeatherDisplay:10.37,2013-04-02 23:51:00,
2013-04-02 15:56:00,43.1,28.0,30.11,NNW,343,0.0,0.0,55,0.00,CLR,,0.00,WeatherDisplay:10.37,2013-04-02 23:56:00,
2013-04-02 16:01:00,42.8,27.7,30.11,NNW,343,0.0,0.0,55,0.00,CLR,,0.00,WeatherDisplay:10.37,2013-04-03 00:01:00,
2013-04-02 16:06:00,43.1,28.0,30.11,NNW,344,0.0,0.0,55,0.00,CLR,,0.00,WeatherDisplay:10.37,2013-04-03 00:06:00,
2013-04-02 16:11:00,43.3,28.2,30.11,NNW,344,0.0,0.0,55,0.00,CLR,,0.00,WeatherDisplay:10.37,2013-04-03 00:11:00,
2013-04-02 16:16:00,43.4,27.8,30.11,NNW,344,0.0,0.0,54,0.00,CLR,,0.00,WeatherDisplay:10.37,2013-04-03 00:16:00,
2013-04-02 16:21:00,43.7,28.1,30.11,NNW,343,0.0,0.0,54,0.00,CLR,,0.00,WeatherDisplay:10.37,2013-04-03 00:21:00,
2013-04-02 16:26:00,43.6,27.6,30.12,NNW,343,0.0,0.0,53,0.00,CLR,,0.00,WeatherDisplay:10.37,2013-04-03 00:26:00,
2013-04-02 16:31:00,43.4,27.8,30.12,NNW,344,0.0,0.0,54,0.00,CLR,,0.00,WeatherDisplay:10.37,2013-04-03 00:31:00,
2013-04-02 16:36:00,43.8,27.8,30.12,NNW,344,0.0,0.0,53,0.00,CLR,,0.00,WeatherDisplay:10.37,2013-04-03 00:36:00,
2013-04-02 16:41:00,43.9,27.4,30.12,NNW,343,0.0,0.0,52,0.00,CLR,,0.00,WeatherDisplay:10.37,2013-04-03 00:41:00,
2013-04-02 16:46:00,43.7,28.1,30.11,NNW,344,0.0,0.0,54,0.00,CLR,,0.00,WeatherDisplay:10.37,2013-04-03 00:46:00,
2013-04-02 16:51:00,43.6,28.0,30.11,NNW,343,0.0,0.0,54,0.00,CLR,,0.00,WeatherDisplay:10.37,2013-04-03 00:51:00,
2013-04-02 16:56:00,43.5,27.5,30.11,NNW,343,0.0,0.0,53,0.00,CLR,,0.00,WeatherDisplay:10.37,2013-04-03 00:56:00,
2013-04-02 17:01:00,43.1,27.1,30.11,NNW,343,0.0,0.0,53,0.00,CLR,,0.00,WeatherDisplay:10.37,2013-04-03 01:01:00,
2013-04-02 17:06:00,42.9,26.9,30.11,NNW,344,0.0,0.0,53,0.00,CLR,,0.00,WeatherDisplay:10.37,2013-04-03 01:06:00,
2013-04-02 17:11:00,43.1,27.6,30.11,NNW,344,0.0,0.0,54,0.00,CLR,,0.00,WeatherDisplay:10.37,2013-04-03 01:11:00,
2013-04-02 17:16:00,43.2,27.2,30.12,NNW,344,0.0,0.0,53,0.00,CLR,,0.00,WeatherDisplay:10.37,2013-04-03 01:16:00,
2013-04-02 17:21:00,43.2,27.2,30.11,NNW,344,0.0,0.0,53,0.00,CLR,,0.00,WeatherDisplay:10.37,2013-04-03 01:21:00,
2013-04-02 17:26:00,43.5,26.1,30.11,NNW,344,0.0,0.0,50,0.00,CLR,,0.00,WeatherDisplay:10.37,2013-04-03 01:26:00,
2013-04-02 17:31:00,43.7,26.7,30.12,NNW,344,0.0,0.0,51,0.00,CLR,,0.00,WeatherDisplay:10.37,2013-04-03 01:31:00,
2013-04-02 17:36:00,44.0,27.0,30.11,NNW,344,0.0,0.0,51,0.00,CLR,,0.00,WeatherDisplay:10.37,2013-04-03 01:36:00,
2013-04-02 17:41:00,44.1,27.1,30.11,NNW,344,0.0,0.0,51,0.00,CLR,,0.00,WeatherDisplay:10.37,2013-04-03 01:41:00,
2013-04-02 17:46:00,44.0,27.0,30.11,NNW,343,0.0,0.0,51,0.00,CLR,,0.00,WeatherDisplay:10.37,2013-04-03 01:46:00,
2013-04-02 17:51:00,43.7,26.7,30.11,NNW,344,0.0,0.0,51,0.00,CLR,,0.00,WeatherDisplay:10.37,2013-04-03 01:51:00,
2013-04-02 17:56:00,42.5,25.6,30.11,NNW,343,0.0,0.0,51,0.00,CLR,,0.00,WeatherDisplay:10.37,2013-04-03 01:56:00,
2013-04-02 18:01:00,41.8,25.9,30.11,NNW,344,0.0,0.0,53,0.00,CLR,,0.00,WeatherDisplay:10.37,2013-04-03 02:01:00,
2013-04-02 18:07:00,41.5,26.1,30.11,NNW,344,0.0,0.0,54,0.00,CLR,,0.00,WeatherDisplay:10.37,2013-04-03 02:07:00,
2013-04-02 18:12:00,41.1,25.7,30.11,NNW,344,0.0,0.0,54,0.00,CLR,,0.00,WeatherDisplay:10.37,2013-04-03 02:12:00,
2013-04-02 18:17:00,40.7,25.8,30.11,NNW,343,0.0,0.0,55,0.00,CLR,,0.00,WeatherDisplay:10.37,2013-04-03 02:17:00,
2013-04-02 18:22:00,40.6,25.7,30.11,NNW,343,0.0,0.0,55,0.00,CLR,,0.00,WeatherDisplay:10.37,2013-04-03 02:22:00,
2013-04-02 18:27:00,40.1,24.8,30.12,NNW,343,0.0,0.0,54,0.00,CLR,,0.00,WeatherDisplay:10.37,2013-04-03 02:27:00,
2013-04-02 18:32:00,39.7,24.8,30.12,NNW,344,0.0,0.0,55,0.00,CLR,,0.00,WeatherDisplay:10.37,2013-04-03 02:32:00,
2013-04-02 18:37:00,39.5,25.1,30.11,NNW,343,0.0,0.0,56,0.00,CLR,,0.00,WeatherDisplay:10.37,2013-04-03 02:37:00,
2013-04-02 18:42:00,39.2,24.4,30.11,NNW,344,0.0,0.0,55,0.00,CLR,,0.00,WeatherDisplay:10.37,2013-04-03 02:42:00,
2013-04-02 18:47:00,39.0,24.2,30.11,NNW,344,0.0,0.0,55,0.00,CLR,,0.00,WeatherDisplay:10.37,2013-04-03 02:47:00,
2013-04-02 18:52:00,38.8,24.0,30.11,NNW,344,0.0,0.0,55,0.00,CLR,,0.00,WeatherDisplay:10.37,2013-04-03 02:52:00,
2013-04-02 18:57:00,38.6,23.8,30.11,NNW,344,0.0,0.0,55,0.00,CLR,,0.00,WeatherDisplay:10.37,2013-04-03 02:57:00,
2013-04-02 19:02:00,38.5,23.7,30.11,NNW,343,0.0,0.0,55,0.00,CLR,,0.00,WeatherDisplay:10.37,2013-04-03 03:02:00,
2013-04-02 19:07:00,38.5,23.7,30.11,NNW,344,0.0,0.0,55,0.00,CLR,,0.00,WeatherDisplay:10.37,2013-04-03 03:07:00,
2013-04-02 19:12:00,38.4,23.2,30.11,NNW,343,0.0,0.0,54,0.00,CLR,,0.00,WeatherDisplay:10.37,2013-04-03 03:12:00,
2013-04-02 19:17:00,38.4,23.2,30.11,NNW,343,0.0,0.0,54,0.00,CLR,,0.00,WeatherDisplay:10.37,2013-04-03 03:17:00,
2013-04-02 19:22:00,38.5,23.7,30.11,NNW,344,0.0,0.0,55,0.00,CLR,,0.00,WeatherDisplay:10.37,2013-04-03 03:22:00,
2013-04-02 19:27:00,38.5,23.7,30.11,NNW,343,0.0,0.0,55,0.00,CLR,,0.00,WeatherDisplay:10.37,2013-04-03 03:27:00,
2013-04-02 19:32:00,38.6,24.2,30.11,NNW,343,0.0,0.0,56,0.00,CLR,,0.00,WeatherDisplay:10.37,2013-04-03 03:32:00,
2013-04-02 19:37:00,38.6,24.7,30.11,NNW,344,0.0,0.0,57,0.00,CLR,,0.00,WeatherDisplay:10.37,2013-04-03 03:37:00,
2013-04-02 19:42:00,38.5,24.6,30.11,NNW,343,0.0,0.0,57,0.00,CLR,,0.00,WeatherDisplay:10.37,2013-04-03 03:42:00,
2013-04-02 19:47:00,38.4,24.5,30.11,NNW,343,0.0,0.0,57,0.00,CLR,,0.00,WeatherDisplay:10.37,2013-04-03 03:47:00,
2013-04-02 19:52:00,38.3,24.8,30.11,NNW,343,0.0,0.0,58,0.00,CLR,,0.00,WeatherDisplay:10.37,2013-04-03 03:52:00,
2013-04-02 19:57:00,38.2,24.7,30.11,NNW,343,0.0,0.0,58,0.00,CLR,,0.00,WeatherDisplay:10.37,2013-04-03 03:57:00,
2013-04-02 20:00:00,38.2,24.7,30.11,NNW,343,0.0,0.0,58,0.00,CLR,,0.00,WeatherDisplay:10.37,2013-04-03 04:00:00,
2013-04-02 20:05:00,38.0,24.5,30.11,NNW,344,0.0,0.0,58,0.00,CLR,,0.00,WeatherDisplay:10.37,2013-04-03 04:05:00,
2013-04-02 20:10:00,37.8,25.1,30.11,NNW,343,0.0,0.0,60,0.00,CLR,,0.00,WeatherDisplay:10.37,2013-04-03 04:10:00,
2013-04-02 20:15:00,37.7,25.1,30.11,NNW,344,0.0,0.0,60,0.00,CLR,,0.00,WeatherDisplay:10.37,2013-04-03 04:15:00,
2013-04-02 20:20:00,37.5,25.3,30.11,NNW,343,0.0,0.0,61,0.00,CLR,,0.00,WeatherDisplay:10.37,2013-04-03 04:20:00,
2013-04-02 20:25:00,37.3,25.5,30.11,NNW,343,0.0,0.0,62,0.00,CLR,,0.00,WeatherDisplay:10.37,2013-04-03 04:25:00,
2013-04-02 20:30:00,37.1,25.3,30.12,NNW,343,0.0,0.0,62,0.00,CLR,,0.00,WeatherDisplay:10.37,2013-04-03 04:30:00,
2013-04-02 20:35:00,36.9,25.5,30.12,NNW,343,0.0,0.0,63,0.00,CLR,,0.00,WeatherDisplay:10.37,2013-04-03 04:35:00,
2013-04-02 20:40:00,36.7,26.0,30.12,NNW,344,0.0,0.0,65,0.00,CLR,,0.00,WeatherDisplay:10.37,2013-04-03 04:40:00,
2013-04-02 20:45:00,36.5,26.2,30.12,NNW,343,0.0,0.0,66,0.00,CLR,,0.00,WeatherDisplay:10.37,2013-04-03 04:45:00,
2013-04-02 20:50:00,36.2,26.3,30.12,NNW,344,0.0,0.0,67,0.00,CLR,,0.00,WeatherDisplay:10.37,2013-04-03 04:50:00,
2013-04-02 20:55:00,35.9,25.6,30.12,NNW,343,0.0,0.0,66,0.00,CLR,,0.00,WeatherDisplay:10.37,2013-04-03 04:55:00,
2013-04-02 21:00:00,35.6,25.7,30.13,NNW,343,0.0,0.0,67,0.00,CLR,,0.00,WeatherDisplay:10.37,2013-04-03 05:00:00,
2013-04-02 21:05:00,35.3,25.4,30.13,NNW,344,0.0,0.0,67,0.00,CLR,,0.00,WeatherDisplay:10.37,2013-04-03 05:05:00,
2013-04-02 21:10:00,35.0,25.1,30.13,NNW,343,0.0,0.0,67,0.00,CLR,,0.00,WeatherDisplay:10.37,2013-04-03 05:10:00,
2013-04-02 21:15:00,34.8,24.6,30.13,NNW,343,0.0,0.0,66,0.00,CLR,,0.00,WeatherDisplay:10.37,2013-04-03 05:15:00,
2013-04-02 21:20:00,34.7,24.5,30.13,NNW,343,0.0,0.0,66,0.00,CLR,,0.00,WeatherDisplay:10.37,2013-04-03 05:20:00,
2013-04-02 21:25:00,34.7,24.9,30.13,NNW,343,0.0,0.0,67,0.00,CLR,,0.00,WeatherDisplay:10.37,2013-04-03 05:25:00,
2013-04-02 21:30:00,34.7,24.5,30.13,NNW,343,0.0,0.0,66,0.00,CLR,,0.00,WeatherDisplay:10.37,2013-04-03 05:30:00,
2013-04-02 21:35:00,34.6,24.8,30.14,NNW,343,0.0,0.0,67,0.00,CLR,,0.00,WeatherDisplay:10.37,2013-04-03 05:35:00,
2013-04-02 21:40:00,34.4,24.6,30.14,NNW,343,0.0,0.0,67,0.00,CLR,,0.00,WeatherDisplay:10.37,2013-04-03 05:40:00,
2013-04-02 21:45:00,34.4,24.9,30.14,NNW,344,0.0,0.0,68,0.00,CLR,,0.00,WeatherDisplay:10.37,2013-04-03 05:45:00,
2013-04-02 21:50:00,34.3,24.8,30.14,NNW,344,0.0,0.0,68,0.00,CLR,,0.00,WeatherDisplay:10.37,2013-04-03 05:50:00,
2013-04-02 21:55:00,34.4,25.3,30.14,NNW,343,0.0,0.0,69,0.00,CLR,,0.00,WeatherDisplay:10.37,2013-04-03 05:55:00,
2013-04-02 22:00:00,34.4,25.3,30.14,NNW,343,0.0,0.0,69,0.00,CLR,,0.00,WeatherDisplay:10.37,2013-04-03 06:00:00,
2013-04-02 22:05:00,34.4,25.6,30.14,NNW,343,0.0,0.0,70,0.00,CLR,,0.00,WeatherDisplay:10.37,2013-04-03 06:05:00,
2013-04-02 22:10:00,34.2,25.4,30.14,NNW,344,0.0,0.0,70,0.00,CLR,,0.00,WeatherDisplay:10.37,2013-04-03 06:10:00,
2013-04-02 22:15:00,33.9,25.5,30.14,NNW,344,0.0,0.0,71,0.00,CLR,,0.00,WeatherDisplay:10.37,2013-04-03 06:15:00,
2013-04-02 22:20:00,33.5,25.4,30.15,NNW,344,0.0,0.0,72,0.00,CLR,,0.00,WeatherDisplay:10.37,2013-04-03 06:20:00,
2013-04-02 22:25:00,33.6,25.5,30.15,NNW,343,0.0,0.0,72,0.00,CLR,,0.00,WeatherDisplay:10.37,2013-04-03 06:25:00,
2013-04-02 22:30:00,33.6,25.9,30.15,NNW,344,0.0,0.0,73,0.00,CLR,,0.00,WeatherDisplay:10.37,2013-04-03 06:30:00,
2013-04-02 22:35:00,33.7,26.3,30.15,NNW,343,0.0,0.0,74,0.00,CLR,,0.00,WeatherDisplay:10.37,2013-04-03 06:35:00,
2013-04-02 22:40:00,33.9,26.8,30.15,NNW,343,0.0,0.0,75,0.00,CLR,,0.00,WeatherDisplay:10.37,2013-04-03 06:40:00,
2013-04-02 22:45:00,33.7,26.3,30.15,NNW,343,0.0,0.0,74,0.00,CLR,,0.00,WeatherDisplay:10.37,2013-04-03 06:45:00,
2013-04-02 22:50:00,33.6,26.2,30.15,NNW,343,0.0,0.0,74,0.00,CLR,,0.00,WeatherDisplay:10.37,2013-04-03 06:50:00,
2013-04-02 22:55:00,33.5,26.4,30.15,NNW,343,0.0,0.0,75,0.00,CLR,,0.00,WeatherDisplay:10.37,2013-04-03 06:55:00,
2013-04-02 23:00:00,33.4,26.3,30.15,NNW,344,0.0,0.0,75,0.00,CLR,,0.00,WeatherDisplay:10.37,2013-04-03 07:00:00,
2013-04-02 23:05:00,33.3,26.5,30.15,NNW,343,0.0,0.0,76,0.00,CLR,,0.00,WeatherDisplay:10.37,2013-04-03 07:05:00,
2013-04-02 23:10:00,33.3,26.5,30.15,NNW,343,0.0,0.0,76,0.00,CLR,,0.00,WeatherDisplay:10.37,2013-04-03 07:10:00,
2013-04-02 23:15:00,33.2,26.8,30.15,NNW,343,0.0,0.0,77,0.00,CLR,,0.00,WeatherDisplay:10.37,2013-04-03 07:15:00,
2013-04-02 23:20:00,33.2,26.8,30.15,NNW,343,0.0,0.0,77,0.00,CLR,,0.00,WeatherDisplay:10.37,2013-04-03 07:20:00,
2013-04-02 23:25:00,33.3,26.9,30.15,NNW,343,0.0,0.0,77,0.00,CLR,,0.00,WeatherDisplay:10.37,2013-04-03 07:25:00,
2013-04-02 23:30:00,33.4,27.0,30.15,NNW,344,0.0,0.0,77,0.00,CLR,,0.00,WeatherDisplay:10.37,2013-04-03 07:30:00,
2013-04-02 23:35:00,33.4,27.0,30.15,NNW,343,0.0,0.0,77,0.00,CLR,,0.00,WeatherDisplay:10.37,2013-04-03 07:35:00,
2013-04-02 23:40:00,33.4,27.0,30.15,NNW,343,0.0,0.0,77,0.00,CLR,,0.00,WeatherDisplay:10.37,2013-04-03 07:40:00,
2013-04-02 23:45:00,33.2,26.8,30.15,NNW,343,0.0,0.0,77,0.00,CLR,,0.00,WeatherDisplay:10.37,2013-04-03 07:45:00,
2013-04-02 23:50:00,32.9,26.5,30.16,NNW,343,0.0,0.0,77,0.00,CLR,,0.00,WeatherDisplay:10.37,2013-04-03 07:50:00,
2013-04-02 23:55:00,32.7,26.6,30.16,NNW,344,0.0,0.0,78,0.00,CLR,,0.00,WeatherDisplay:10.37,2013-04-03 07:55:00,